Find Starlink 33919

NORAD ID: 63699 Int'l Des: 2025-087 Owner: SPXS Country: US Constellation: starlink operational
LEOCIRCULAR

Current View

Loading 3D Globe...

About Starlink 33919

Starlink 33919 (NORAD 63699) is a starlink constellation satellite (v2 mini) launched Apr 28, 2025 by SPXS of US. It operates in LEO, CIRCULAR orbit with a mass of 575.00 kg.

About Starlink 33919

Description loading...

Upcoming Passes

Passes for default location (London). Set your location on the main map for personalized predictions.

Altitude History

Loading altitude history...

Two-Line Element Set

1 63699U 25087C 26170.96681306 .00016033 00000-0 55207-3 0 9995
2 63699 53.1587 104.8544 0001459 105.2962 254.8201 15.30212887 64856
Epoch: Jun 19, 2026 • Age: 42 hours

Current Status

Altitude 487.0 km
Velocity 7.62 km/s
Sub-Earth Point -36.04°S, 145.5°E
Launch Date Apr 28, 2025
Age 1.1 years
Type internet

Technical Details

Classification Payload
Mass 575.00 kg
Dry Mass 530.00 kg
Total Mass 575.00 kg
Length 0.30 m
Diameter 4.10 m
Span 29.00 m
Shape Box + pan
Manufacturer SPXS
Bus Type Starlink V2MO
Phase Status In Orbit
Owner/State SPXS/US

Most Searched